SCP
0 0 0 0 0 0 0 0 0 0 0 0 0 0 0 0 0 0 0 0 0 0 0 0 0 0 0 0 0 0 0 0 0 0 -0 0 0 0 0 0 0 0 0 -0
0 0 0 0 0 0 0 0 0 0 0 0 0 0 0 0 0 0 0 0 0 0 0 0 0 0 0 0 0 0 0 0 0 0 0 -0 0 0 0 -0 -0 0 0 0
0 0 0 0 0 0 0 0 0 0 0 0 0 0 0 0 0 0 0 0 0 0 0 0 0 0 0 0 0 -0 0 0 0 0 -0 -0 -0 -0 -0 -0 -0 0 0 0
0 0 0 0 0 0 0 0 0 0 0 0 0 0 0 0 0 0 0 0 0 0 0 0 0 0 0 0 0 0 0 0 0 0 -0 -0 -0 -0 0 -0 0 0 0 0
0 0 0 0 0 0 0 0 0 0 0 0 0 0 0 0 0 0 0 0 0 0 0 0 0 0 0 0 0 0 0 0 0 -0 -0 0 -0 -0 -0 -0 -0 0 -0 0
0 0 0 0 0 0 0 0 0 0 0 0 0 0 0 0 0 0 0 0 0 0 0 0 0 0 0 0 0 0 0 0 0 0 0 0 -0 0 0 0 0 0 -0 -0
0 0 0 0 0 0 0 0 0 0 0 0 0 0 0 0 0 0 0 0 0 0 0 0 0 0 0 0 0 0 0 0 0 0 0 0 -0 -0 0 0 -0 0 0 -0
0 0 0 0 0 0 0 0 0 0 0 0 0 0 0 0 0 0 0 0 0 0 0 0 0 0 0 0 0 0 0 0 0 0 0 -0 0 0 0 0 0 0 0 0
0 0 0 0 0 0 0 0 0 0 0 0 0 0 0 0 0 0 0 0 0 0 0 0 0 0 0 0 0 0 0 0 0 0 0 0 0 -0 0 0 0 -0 -0 -0
0 0 0 0 0 0 0 0 0 0 0 0 0 0 0 0 0 0 0 0 0 0 0 0 0 0 0 0 0 0 0 0 0 0 0 0 -0 -0 -0 0 0 -0 -0 -0
0 0 0 0 0 0 0 0 0 0 0 0 0 0 0 0 0 0 0 0 0 0 0 0 0 0 0 0 0 0 0 0 0 0 0 0 -0 -0 -0 -0 -0 -0 -0 -0
0 0 0 0 0 0 0 0 0 0 0 0 0 0 0 0 0 0 0 0 0 0 0 0 0 0 0 0 0 0 0 0 0 0 0 0 0 -0 -0 -0 -0 -0 -0 -0
0 0 0 0 0 0 0 0 0 0 0 0 0 0 0 0 0 0 0 0 0 0 0 0 0 0 0 0 0 0 0 0 0 0 0 0 -0 0 -0 -0 -0 -0 -0 -0
0 0 0 0 0 0 0 0 0 0 0 0 0 0 0 0 0 0 0 0 0 0 0 0 0 0 0 0 0 0 0 0 0 -0 -0 0 -0 0 0 -0 -0 -0 0 -0
0 0 0 0 0 0 0 0 0 0 0 0 0 0 0 0 0 0 0 0 0 0 0 0 0 0 0 0 0 0 0 0 0 0 0 0 -0 -0 -0 0 0 -0 0 0
0 0 0 0 0 0 0 0 0 0 0 0 0 0 0 0 0 0 0 0 0 0 0 0 0 0 0 0 0 0 0 0 0 0 0 -0 -0 -0 0 0 0 0 0 -0
0 0 0 0 0 0 0 0 0 0 0 0 0 0 0 0 0 0 0 0 0 0 0 0 0 0 0 0 0 0 0 0 0 0 0 -0 0 0 0 0 0 0 0 0
0 0 0 0 0 0 0 0 0 0 0 0 0 0 0 0 0 0 0 0 0 0 0 0 0 0 0 0 0 0 0 0 0 0 0 0 0 0 0 0 0 0 0 0
0 0 0 0 0 0 0 0 0 0 0 0 0 0 0 0 0 0 0 0 0 0 0 0 0 0 0 0 0 0 0 0 0 0 0 0 0 0 0 0 0 0 0 0
0 0 0 0 0 0 0 0 0 0 0 0 0 0 0 0 0 0 0 0 0 0 0 0 0 0 0 0 0 0 0 0 0 0 0 0 -0 0 0 0 0 0 0 0
0 0 0 0 0 0 0 0 0 0 0 0 0 0 0 0 0 0 0 0 0 0 0 0 0 0 0 0 0 0 0 0 0 0 0 0 -0 0 0 0 0 0 0 0
0 0 0 0 0 0 0 0 0 0 0 0 0 0 0 0 0 0 0 0 0 0 0 0 0 0 0 0 0 0 0 0 0 -0 0 0 0 0 0 0 0 0 0 0
0 0 0 0 0 0 0 0 0 0 0 0 0 0 0 0 0 0 0 0 0 0 0 0 0 0 0 0 0 0 0 0 0 0 0 0 0 0 0 0 0 0 0 0
0 0 0 0 0 0 0 0 0 0 0 0 0 0 0 0 0 0 0 0 0 0 0 0 0 0 0 0 0 0 0 0 0 0 0 0 0 0 0 0 0 0 0 0
0 0 0 0 0 0 0 0 0 0 0 0 0 0 0 0 0 0 0 0 0 0 0 0 0 0 0 0 0 0 0 0 0 0 0 0 0 0 0 0 0 0 0 0
0 0 0 0 0 0 0 0 0 0 0 0 0 0 0 0 0 0 0 0 0 0 0 0 0 0 0 0 0 0 0 0 0 0 0 0 0 0 0 0 0 0 0 0
0 0 0 0 0 0 0 0 0 0 0 0 0 0 0 0 0 0 0 0 0 0 0 0 0 0 0 0 0 0 0 0 0 0 0 0 0 0 0 0 0 0 0 0
Wind_Speed_500mb
47 43 51 52 59 50 50 28 9 18 17 6 5 4 6 6 9 14 11 14 14 5 16 15 8 12 21 45 56 18 8 14 16 28 24 3 4 7 4 3 12 6 10 30
56 49 52 59 56 41 43 20 15 18 6 5 4 4 9 16 12 7 4 7 9 11 9 11 10 30 21 64 35 22 14 5 22 17 13 6 7 6 5 6 6 15 13 19
54 52 49 56 47 36 29 11 7 8 7 8 7 10 10 5 9 17 16 15 17 7 7 8 23 45 22 51 47 56 18 6 8 20 17 19 22 20 9 9 6 16 18 37
54 53 54 58 52 32 17 6 8 7 5 10 11 9 7 16 10 8 8 6 12 21 15 31 32 21 44 46 22 10 1 10 9 17 23 27 27 31 19 10 19 16 32 30
61 55 48 61 55 28 20 10 7 7 9 19 16 11 7 12 7 6 10 21 27 15 26 25 46 34 34 24 12 23 6 8 6 15 21 15 15 20 17 23 17 10 16 25
68 57 51 59 64 47 21 19 25 11 11 8 7 7 7 5 10 12 18 15 27 26 27 37 55 55 63 39 33 8 5 4 4 9 4 10 8 9 8 5 5 7 6 13
80 62 53 54 80 63 47 33 23 12 8 14 13 13 17 21 15 23 33 37 27 20 47 56 57 39 36 22 17 23 6 3 6 9 10 4 6 5 3 10 13 10 19 25
91 70 54 47 87 76 54 46 32 19 9 21 23 32 25 16 26 29 31 40 35 28 30 8 13 9 11 7 12 11 13 4 6 2 4 17 7 7 5 6 12 8 10 17
98 80 60 53 86 70 55 60 42 29 10 18 37 15 15 15 13 6 17 17 19 11 3 4 5 6 4 9 16 4 7 17 2 6 4 5 4 10 3 1 4 3 6 12
102 93 79 58 80 82 65 62 50 52 19 36 40 17 9 7 9 7 13 4 7 6 4 5 5 7 7 4 6 8 10 3 9 10 8 7 6 9 5 6 9 25 15 25
101 101 89 62 80 81 68 68 59 52 27 40 43 41 30 19 15 6 7 15 1 4 3 4 5 5 6 1 9 5 4 2 4 5 4 7 1 11 7 14 38 35 36 34
99 103 93 66 80 79 67 69 56 46 50 30 24 39 55 57 59 43 21 18 9 12 2 3 4 5 5 2 6 4 5 7 6 4 8 31 38 20 29 27 32 33 33 39
92 106 96 66 85 78 71 63 48 35 38 54 48 40 16 24 30 33 30 22 29 18 23 3 6 10 2 5 9 10 9 13 5 6 10 11 35 10 18 25 36 40 33 35
88 103 94 70 85 74 62 55 48 40 12 10 7 19 30 27 27 40 48 43 26 22 22 13 6 5 15 6 11 14 14 15 13 24 31 28 17 20 26 46 37 34 38 36
82 103 78 80 77 61 52 47 46 41 29 8 13 38 54 30 12 34 50 50 46 23 10 10 7 10 12 14 6 19 12 10 8 11 6 11 18 30 41 29 33 43 50 53
83 97 82 74 70 64 53 23 40 50 42 8 6 9 20 22 22 13 25 38 37 31 13 11 15 23 13 6 7 14 36 28 21 10 26 39 50 35 23 34 49 42 43 43
98 89 78 77 70 62 41 16 20 30 34 6 7 7 7 7 8 14 19 26 21 25 16 14 17 19 21 5 23 15 28 24 22 24 33 22 2 23 51 40 43 40 39 36
88 76 77 69 57 49 36 20 16 34 21 14 4 6 5 9 8 10 11 10 19 17 12 10 7 12 13 10 11 14 15 13 17 15 21 26 46 43 37 37 40 43 42 43
83 85 76 60 45 23 27 30 26 46 14 10 9 5 3 11 5 5 5 11 5 14 6 6 5 5 11 10 13 12 7 5 14 24 29 29 21 37 36 37 36 41 44 44
103 84 28 15 26 30 43 22 26 31 17 16 6 16 5 12 7 7 3 10 5 5 6 7 5 7 14 13 14 12 8 14 20 25 18 33 34 31 33 37 37 38 40 41
78 26 13 48 53 24 10 12 9 12 6 13 10 32 8 12 5 4 8 3 1 5 6 5 5 6 5 14 12 8 10 15 18 22 24 23 25 31 35 33 30 30 32 32
60 44 62 49 12 9 9 9 8 10 9 18 9 12 19 8 11 5 6 5 3 10 7 3 6 4 13 12 6 8 12 14 17 20 17 17 21 24 24 25 26 26 27 26
70 20 16 16 9 9 15 17 8 8 14 17 15 6 12 8 9 6 4 8 9 4 4 8 7 11 11 3 5 8 13 15 16 14 14 15 16 16 17 16 18 22 24 24
15 12 12 9 9 9 7 3 9 12 24 33 25 14 7 8 5 4 7 6 2 6 6 10 0 9 4 6 9 11 13 13 12 10 9 9 10 10 12 15 18 19 20 22
12 12 10 7 10 13 17 26 25 21 34 32 15 10 7 3 3 6 2 4 8 8 7 2 7 6 2 8 11 13 14 12 9 8 7 7 7 7 9 13 16 19 20 20
10 9 10 8 10 6 12 19 22 32 33 21 11 5 5 8 6 7 13 5 9 5 2 5 3 5 6 10 13 13 12 9 6 4 5 6 7 8 10 13 16 18 20 20
9 6 20 18 17 16 16 25 26 36 26 5 6 8 17 1 5 7 6 7 2 7 3 4 7 9 12 13 12 10 9 7 5 4 5 7 9 11 14 16 19 20 21 20
Wind_Direction_500mb
295 286 285 285 300 311 328 342 304 287 316 296 188 242 197 297 278 297 274 289 282 299 331 295 285 257 313 326 323 329 288 306 291 292 295 155 255 276 273 261 311 285 266 294
295 287 281 287 286 306 327 317 269 296 250 287 222 204 237 273 273 237 264 272 290 346 307 314 270 293 299 310 335 310 298 224 303 314 325 57 289 166 238 276 252 249 280 282
293 287 274 277 273 291 321 319 303 244 216 262 275 289 271 264 273 281 255 258 306 286 246 257 286 291 299 312 306 300 347 314 244 279 279 291 293 294 269 197 252 287 267 293
287 280 273 278 268 270 297 197 240 253 272 229 244 312 290 276 280 238 230 255 235 297 286 306 277 298 310 310 298 329 242 249 229 252 262 276 262 266 277 217 250 265 293 305
287 279 270 254 271 238 259 205 228 207 266 286 278 253 217 239 275 216 248 276 292 294 287 283 295 310 307 300 309 321 219 279 340 289 248 248 257 269 267 269 278 270 283 284
285 280 268 255 255 236 242 221 231 244 236 218 242 234 239 251 310 283 261 292 298 296 287 301 294 289 282 267 276 294 256 343 305 265 252 310 310 259 224 283 194 174 281 269
282 277 260 257 249 245 248 243 239 197 242 220 224 241 254 262 272 269 280 289 286 262 307 308 300 280 267 257 253 229 267 172 225 272 332 342 247 4 141 208 247 232 272 284
277 271 260 250 239 250 235 234 227 201 254 235 258 260 269 272 265 262 269 280 283 292 319 301 320 327 15 296 243 238 204 181 279 205 282 269 101 348 332 96 294 244 295 305
275 267 263 246 235 232 226 233 239 227 261 218 248 264 220 269 277 265 239 277 271 297 261 303 279 286 255 305 315 276 218 205 256 337 261 270 227 307 177 114 248 341 272 281
278 263 262 245 242 233 221 230 233 225 243 261 248 241 238 187 229 247 285 193 221 219 218 251 244 277 173 286 295 313 313 289 209 252 289 293 235 306 293 287 291 314 308 318
277 266 254 245 242 235 215 231 234 226 247 258 253 248 244 256 210 228 287 321 94 132 227 237 258 239 254 335 239 231 237 322 320 339 279 317 127 323 4 290 314 312 320 328
274 264 249 240 236 230 215 224 232 242 243 259 235 259 272 264 264 258 241 238 169 211 185 280 288 288 271 254 279 159 299 199 224 237 251 301 311 271 315 323 310 315 321 321
275 261 245 235 232 221 211 221 231 227 249 276 268 265 286 247 233 237 236 240 229 221 225 258 243 240 246 243 244 268 265 282 221 339 272 289 305 289 343 333 326 322 326 327
272 258 240 224 215 207 209 221 229 228 230 266 275 266 262 267 255 229 226 246 235 219 216 213 238 213 233 245 259 276 265 292 259 274 280 298 276 344 333 318 318 317 318 329
272 248 228 215 210 201 207 219 226 238 206 262 276 283 288 277 253 238 239 234 224 218 215 225 233 233 241 254 253 260 222 230 221 261 130 246 277 311 320 306 317 317 314 313
260 228 218 211 192 194 195 207 230 228 234 258 279 297 271 255 264 215 210 215 218 217 219 220 231 225 197 253 249 214 234 233 232 262 290 296 300 311 272 312 314 315 317 316
229 217 205 189 190 195 186 185 164 156 169 210 286 270 246 258 224 206 198 201 206 219 238 231 240 226 216 224 257 266 258 230 245 270 287 301 193 305 308 313 314 316 319 321
207 191 178 179 185 191 192 200 186 176 160 172 229 256 255 197 171 161 178 169 208 228 238 235 223 226 210 250 257 228 185 234 273 264 270 281 298 306 312 313 317 321 327 326
181 165 165 159 170 167 182 195 202 184 169 191 209 202 231 175 147 137 152 198 234 225 229 213 180 224 228 226 156 168 218 245 270 284 293 297 297 313 318 322 325 324 326 328
164 156 144 133 140 141 134 136 160 189 210 221 229 193 212 161 154 158 124 193 239 257 214 145 215 253 249 209 190 195 245 283 298 312 320 309 315 324 326 329 329 325 325 327
151 145 106 135 145 127 108 138 163 178 221 219 215 199 175 193 140 192 207 275 213 256 238 168 233 261 162 194 209 245 284 296 306 312 313 314 318 325 328 333 335 333 334 333
165 135 125 128 134 115 145 180 181 195 219 169 171 167 178 166 172 158 186 229 135 251 150 218 258 237 155 180 220 284 302 309 317 319 325 327 327 323 330 339 348 353 351 349
125 101 118 139 149 173 184 183 190 188 161 160 154 128 145 134 167 196 171 223 233 126 214 228 227 138 170 225 296 316 321 326 330 328 325 329 338 342 355 7 7 10 11 11
87 122 127 189 172 216 183 136 118 118 141 143 135 114 139 156 162 209 223 225 55 247 237 233 281 151 219 316 321 333 331 328 327 328 332 343 356 3 14 17 16 19 17 20
100 118 130 165 115 82 112 120 115 117 148 137 111 96 147 158 224 194 268 235 247 222 232 189 163 178 273 323 324 330 332 333 328 320 319 335 355 7 14 16 9 4 359 358
86 88 99 97 115 97 126 129 127 142 145 125 107 109 124 232 198 185 218 232 223 230 116 107 195 256 302 312 320 324 329 341 333 328 335 342 346 341 342 343 342 340 340 344
77 79 110 104 113 145 145 153 155 156 145 132 122 142 214 41 224 226 215 215 239 60 89 281 261 271 297 307 307 309 320 349 5 352 336 334 328 327 327 330 329 331 334 336
Wind_Speed_850mb
47 43 51 52 59 50 50 28 9 18 17 6 5 4 6 6 9 14 11 14 14 5 16 15 8 12 21 45 56 18 8 14 16 28 24 3 4 7 4 3 12 6 10 30
56 49 52 59 56 41 43 20 15 18 6 5 4 4 9 16 12 7 4 7 9 11 9 11 10 30 21 64 35 22 14 5 22 17 13 6 7 6 5 6 6 15 13 19
54 52 49 56 47 36 29 11 7 8 7 8 7 10 10 5 9 17 16 15 17 7 7 8 23 45 22 51 47 56 18 6 8 20 17 19 22 20 9 9 6 16 18 37
54 53 54 58 52 32 17 6 8 7 5 10 11 9 7 16 10 8 8 6 12 21 15 31 32 21 44 46 22 10 1 10 9 17 23 27 27 31 19 10 19 16 32 30
61 55 48 61 55 28 20 10 7 7 9 19 16 11 7 12 7 6 10 21 27 15 26 25 46 34 34 24 12 23 6 8 6 15 21 15 15 20 17 23 17 10 16 25
68 57 51 59 64 47 21 19 25 11 11 8 7 7 7 5 10 12 18 15 27 26 27 37 55 55 63 39 33 8 5 4 4 9 4 10 8 9 8 5 5 7 6 13
80 62 53 54 80 63 47 33 23 12 8 14 13 13 17 21 15 23 33 37 27 20 47 56 57 39 36 22 17 23 6 3 6 9 10 4 6 5 3 10 13 10 19 25
91 70 54 47 87 76 54 46 32 19 9 21 23 32 25 16 26 29 31 40 35 28 30 8 13 9 11 7 12 11 13 4 6 2 4 17 7 7 5 6 12 8 10 17
98 80 60 53 86 70 55 60 42 29 10 18 37 15 15 15 13 6 17 17 19 11 3 4 5 6 4 9 16 4 7 17 2 6 4 5 4 10 3 1 4 3 6 12
102 93 79 58 80 82 65 62 50 52 19 36 40 17 9 7 9 7 13 4 7 6 4 5 5 7 7 4 6 8 10 3 9 10 8 7 6 9 5 6 9 25 15 25
101 101 89 62 80 81 68 68 59 52 27 40 43 41 30 19 15 6 7 15 1 4 3 4 5 5 6 1 9 5 4 2 4 5 4 7 1 11 7 14 38 35 36 34
99 103 93 66 80 79 67 69 56 46 50 30 24 39 55 57 59 43 21 18 9 12 2 3 4 5 5 2 6 4 5 7 6 4 8 31 38 20 29 27 32 33 33 39
92 106 96 66 85 78 71 63 48 35 38 54 48 40 16 24 30 33 30 22 29 18 23 3 6 10 2 5 9 10 9 13 5 6 10 11 35 10 18 25 36 40 33 35
88 103 94 70 85 74 62 55 48 40 12 10 7 19 30 27 27 40 48 43 26 22 22 13 6 5 15 6 11 14 14 15 13 24 31 28 17 20 26 46 37 34 38 36
82 103 78 80 77 61 52 47 46 41 29 8 13 38 54 30 12 34 50 50 46 23 10 10 7 10 12 14 6 19 12 10 8 11 6 11 18 30 41 29 33 43 50 53
83 97 82 74 70 64 53 23 40 50 42 8 6 9 20 22 22 13 25 38 37 31 13 11 15 23 13 6 7 14 36 28 21 10 26 39 50 35 23 34 49 42 43 43
98 89 78 77 70 62 41 16 20 30 34 6 7 7 7 7 8 14 19 26 21 25 16 14 17 19 21 5 23 15 28 24 22 24 33 22 2 23 51 40 43 40 39 36
88 76 77 69 57 49 36 20 16 34 21 14 4 6 5 9 8 10 11 10 19 17 12 10 7 12 13 10 11 14 15 13 17 15 21 26 46 43 37 37 40 43 42 43
83 85 76 60 45 23 27 30 26 46 14 10 9 5 3 11 5 5 5 11 5 14 6 6 5 5 11 10 13 12 7 5 14 24 29 29 21 37 36 37 36 41 44 44
103 84 28 15 26 30 43 22 26 31 17 16 6 16 5 12 7 7 3 10 5 5 6 7 5 7 14 13 14 12 8 14 20 25 18 33 34 31 33 37 37 38 40 41
78 26 13 48 53 24 10 12 9 12 6 13 10 32 8 12 5 4 8 3 1 5 6 5 5 6 5 14 12 8 10 15 18 22 24 23 25 31 35 33 30 30 32 32
60 44 62 49 12 9 9 9 8 10 9 18 9 12 19 8 11 5 6 5 3 10 7 3 6 4 13 12 6 8 12 14 17 20 17 17 21 24 24 25 26 26 27 26
70 20 16 16 9 9 15 17 8 8 14 17 15 6 12 8 9 6 4 8 9 4 4 8 7 11 11 3 5 8 13 15 16 14 14 15 16 16 17 16 18 22 24 24
15 12 12 9 9 9 7 3 9 12 24 33 25 14 7 8 5 4 7 6 2 6 6 10 0 9 4 6 9 11 13 13 12 10 9 9 10 10 12 15 18 19 20 22
12 12 10 7 10 13 17 26 25 21 34 32 15 10 7 3 3 6 2 4 8 8 7 2 7 6 2 8 11 13 14 12 9 8 7 7 7 7 9 13 16 19 20 20
10 9 10 8 10 6 12 19 22 32 33 21 11 5 5 8 6 7 13 5 9 5 2 5 3 5 6 10 13 13 12 9 6 4 5 6 7 8 10 13 16 18 20 20
9 6 20 18 17 16 16 25 26 36 26 5 6 8 17 1 5 7 6 7 2 7 3 4 7 9 12 13 12 10 9 7 5 4 5 7 9 11 14 16 19 20 21 20
Wind_Direction_850mb
295 286 285 285 300 311 328 342 304 287 316 296 188 242 197 297 278 297 274 289 282 299 331 295 285 257 313 326 323 329 288 306 291 292 295 155 255 276 273 261 311 285 266 294
295 287 281 287 286 306 327 317 269 296 250 287 222 204 237 273 273 237 264 272 290 346 307 314 270 293 299 310 335 310 298 224 303 314 325 57 289 166 238 276 252 249 280 282
293 287 274 277 273 291 321 319 303 244 216 262 275 289 271 264 273 281 255 258 306 286 246 257 286 291 299 312 306 300 347 314 244 279 279 291 293 294 269 197 252 287 267 293
287 280 273 278 268 270 297 197 240 253 272 229 244 312 290 276 280 238 230 255 235 297 286 306 277 298 310 310 298 329 242 249 229 252 262 276 262 266 277 217 250 265 293 305
287 279 270 254 271 238 259 205 228 207 266 286 278 253 217 239 275 216 248 276 292 294 287 283 295 310 307 300 309 321 219 279 340 289 248 248 257 269 267 269 278 270 283 284
285 280 268 255 255 236 242 221 231 244 236 218 242 234 239 251 310 283 261 292 298 296 287 301 294 289 282 267 276 294 256 343 305 265 252 310 310 259 224 283 194 174 281 269
282 277 260 257 249 245 248 243 239 197 242 220 224 241 254 262 272 269 280 289 286 262 307 308 300 280 267 257 253 229 267 172 225 272 332 342 247 4 141 208 247 232 272 284
277 271 260 250 239 250 235 234 227 201 254 235 258 260 269 272 265 262 269 280 283 292 319 301 320 327 15 296 243 238 204 181 279 205 282 269 101 348 332 96 294 244 295 305
275 267 263 246 235 232 226 233 239 227 261 218 248 264 220 269 277 265 239 277 271 297 261 303 279 286 255 305 315 276 218 205 256 337 261 270 227 307 177 114 248 341 272 281
278 263 262 245 242 233 221 230 233 225 243 261 248 241 238 187 229 247 285 193 221 219 218 251 244 277 173 286 295 313 313 289 209 252 289 293 235 306 293 287 291 314 308 318
277 266 254 245 242 235 215 231 234 226 247 258 253 248 244 256 210 228 287 321 94 132 227 237 258 239 254 335 239 231 237 322 320 339 279 317 127 323 4 290 314 312 320 328
274 264 249 240 236 230 215 224 232 242 243 259 235 259 272 264 264 258 241 238 169 211 185 280 288 288 271 254 279 159 299 199 224 237 251 301 311 271 315 323 310 315 321 321
275 261 245 235 232 221 211 221 231 227 249 276 268 265 286 247 233 237 236 240 229 221 225 258 243 240 246 243 244 268 265 282 221 339 272 289 305 289 343 333 326 322 326 327
272 258 240 224 215 207 209 221 229 228 230 266 275 266 262 267 255 229 226 246 235 219 216 213 238 213 233 245 259 276 265 292 259 274 280 298 276 344 333 318 318 317 318 329
272 248 228 215 210 201 207 219 226 238 206 262 276 283 288 277 253 238 239 234 224 218 215 225 233 233 241 254 253 260 222 230 221 261 130 246 277 311 320 306 317 317 314 313
260 228 218 211 192 194 195 207 230 228 234 258 279 297 271 255 264 215 210 215 218 217 219 220 231 225 197 253 249 214 234 233 232 262 290 296 300 311 272 312 314 315 317 316
229 217 205 189 190 195 186 185 164 156 169 210 286 270 246 258 224 206 198 201 206 219 238 231 240 226 216 224 257 266 258 230 245 270 287 301 193 305 308 313 314 316 319 321
207 191 178 179 185 191 192 200 186 176 160 172 229 256 255 197 171 161 178 169 208 228 238 235 223 226 210 250 257 228 185 234 273 264 270 281 298 306 312 313 317 321 327 326
181 165 165 159 170 167 182 195 202 184 169 191 209 202 231 175 147 137 152 198 234 225 229 213 180 224 228 226 156 168 218 245 270 284 293 297 297 313 318 322 325 324 326 328
164 156 144 133 140 141 134 136 160 189 210 221 229 193 212 161 154 158 124 193 239 257 214 145 215 253 249 209 190 195 245 283 298 312 320 309 315 324 326 329 329 325 325 327
151 145 106 135 145 127 108 138 163 178 221 219 215 199 175 193 140 192 207 275 213 256 238 168 233 261 162 194 209 245 284 296 306 312 313 314 318 325 328 333 335 333 334 333
165 135 125 128 134 115 145 180 181 195 219 169 171 167 178 166 172 158 186 229 135 251 150 218 258 237 155 180 220 284 302 309 317 319 325 327 327 323 330 339 348 353 351 349
125 101 118 139 149 173 184 183 190 188 161 160 154 128 145 134 167 196 171 223 233 126 214 228 227 138 170 225 296 316 321 326 330 328 325 329 338 342 355 7 7 10 11 11
87 122 127 189 172 216 183 136 118 118 141 143 135 114 139 156 162 209 223 225 55 247 237 233 281 151 219 316 321 333 331 328 327 328 332 343 356 3 14 17 16 19 17 20
100 118 130 165 115 82 112 120 115 117 148 137 111 96 147 158 224 194 268 235 247 222 232 189 163 178 273 323 324 330 332 333 328 320 319 335 355 7 14 16 9 4 359 358
86 88 99 97 115 97 126 129 127 142 145 125 107 109 124 232 198 185 218 232 223 230 116 107 195 256 302 312 320 324 329 341 333 328 335 342 346 341 342 343 342 340 340 344
77 79 110 104 113 145 145 153 155 156 145 132 122 142 214 41 224 226 215 215 239 60 89 281 261 271 297 307 307 309 320 349 5 352 336 334 328 327 327 330 329 331 334 336